Regional Weather Roundup
Issued by NWS

Home | Current Version | Previous Version | Text Only | Print | Product List | Glossary Off
Versions: 1 2 3 4 5 6 7 8 9 10 11 12 13 14 15 16 17 18 19 20 21 22 23 24 25 26 27 28 29 30 31 32 33 34 35 36 37 38 39 40 41 42 43 44 45 46 47 48 49 50

181
ASUS43 KDTX 182210
RWRMI
MICHIGAN HOURLY REGIONAL WEATHER ROUNDUP
NATIONAL WEATHER SERVICE DETROIT/PONTIAC MI
500 PM EST WED JAN 18 2017

NOTE: "FAIR" INDICATES FEW OR NO CLOUDS BELOW 12,000 FEET WITH NO
SIGNIFICANT WEATHER AND/OR OBSTRUCTION TO VISIBILITY.

MIZ047>049-052>055-059>063-066>070-074>076-081>083-182300-
SOUTHEAST LOWER MICHIGAN

CITY           SKY/WX    TMP DP  RH WIND       PRES   REMARKS
ADRIAN         CLOUDY    35  34  96 W10G20    30.08R WCI  27
ALMA           CLOUDY    37  35  94 SW13      30.01F WCI  28
ANN ARBOR      CLOUDY    38  36  92 SW10      30.06R WCI  31
BAD AXE        CLOUDY    35  35 100 SW12G17   29.98F WCI  26
CARO           CLOUDY    36  35  96 SW9       30.00S WCI  29
DETROIT CITY   CLOUDY    41  37  87 W12       30.05R
DETROIT        CLOUDY    41  36  82 SW10      30.07R
FLINT          CLOUDY    37  35  92 SW6       30.03S WCI  32
GROSSE ILE     CLOUDY    40  36  84 W6        30.05S
HILLSDALE      FOG       32  32 100 SW10      30.04F VSB 1/2 WCI  24
HOWELL         CLOUDY    37  35  90 SW7       30.04S WCI  32

CITY           SKY/WX    TMP DP  RH WIND       PRES   REMARKS
JACKSON        CLOUDY    35  33  92 W12       30.07R FOG     WCI  27
LAMBERTVILLE   CLOUDY    39  35  86 SW7       30.08S WCI  34
LANSING        CLOUDY    38  34  85 SW12      30.04F WCI  30
LAPEER         CLOUDY    37  36  95 W8        30.01F WCI  31
MASON          CLOUDY    37  35  94 SW8       30.04F WCI  31
MONROE         CLOUDY    38  37  94 SW15      30.07R WCI  29
MT. CLEMENS    CLOUDY    41  38  89 W6        30.03R
PONTIAC        CLOUDY    37  34  89 W6        30.03R WCI  32
PORT HOPE        N/A     36  34  92 SW10G22   29.95F WCI  28
PORT HURON     CLOUDY    39  36  87 W3        30.04R
TRI CITIES     CLOUDY    37  36  96 SW16      30.00F WCI  28
MIDLAND        CLOUDY    38  35  87 SW12      29.98F WCI  31
TROY           CLOUDY    40  35  82 W7        30.07R
SAGINAW HB     CLOUDY    37  34  87 SW7       30.01S WCI  32
$$
MIZ043>046-050>051-056>058-064>065-071>073-077>080-182300-
SOUTHWEST LOWER MICHIGAN

CITY           SKY/WX    TMP DP  RH WIND       PRES   REMARKS
BATTLE CREEK   CLOUDY    35  35 100 W8        30.07R FOG     WCI  29
BENTON HARBOR  CLOUDY    35  32  88 SW13      30.09R FOG     WCI  26
BIG RAPIDS     CLOUDY    34  33  94 SW8       29.98F FOG     WCI  28
COLDWATER      CLOUDY    35  35 100 SW12      30.06F FOG     WCI  26
FREMONT        CLOUDY    35  35 100 SW17      30.01S FOG     WCI  25
HOLLAND        CLOUDY    36  33  89 SW14      30.06F WCI  27
GRAND RAPIDS   CLOUDY    35  32  88 SW13      30.05F FOG     WCI  26
IONIA          CLOUDY    35  34  96 SW17      30.03S WCI  25
KALAMAZOO      CLOUDY    36  33  89 SW8       30.08R FOG     WCI  30
LUDINGTON      CLOUDY    35  33  96 S16G23    29.99S WCI  24
MARSHALL       CLOUDY    35  34  98 SW9       30.06R FOG     WCI  28
MOUNT PLEASANT CLOUDY    36  34  94 SW10G18   29.98F WCI  28
MUSKEGON       CLOUDY    37  34  89 SW13      30.04F FOG     WCI  29
SOUTH HAVEN    CLOUDY    34  33  97 SW7       30.09R FOG     WCI  28
$$
MIZ016>042-182300-
NORTHERN LOWER MICHIGAN

CITY           SKY/WX    TMP DP  RH WIND       PRES   REMARKS
ALPENA         CLEAR     41  33  73 SW7       29.88S
BEAVER ISLAND  CLOUDY    35  34  96 SW17G26   29.87R WCI  24
BELLAIRE       CLEAR     39  34  82 SW6G16    29.90R WCI  34
CADILLAC       CLOUDY    35  33  94 SW7       29.92F WCI  29
CHARLEVOIX     CLEAR     36  34  92 SW13G20   29.90R WCI  27
FRANKFORT      CLOUDY    35  34  96 S10G20    29.93F WCI  28
GAYLORD        CLEAR     41  30  65 SW13      29.85S
GRAYLING       CLEAR     40  34  79 S9        29.90S WCI  34
HARBOR SPRINGS CLEAR     37  33  85 SW12      29.86S WCI  29
HOUGHTON LAKE  CLOUDY    36  32  85 SW10      29.93S WCI  28
MANISTEE       CLOUDY    35  33  92 S10G20    29.97R WCI  27
OSCODA         CLOUDY    38  35  88 SW15      29.92F WCI  29
PELLSTON       CLEAR     38  31  76 VRB6      29.87R WCI  33
ROGERS CITY    CLEAR     42  33  71 SW5       29.86R
TRAVERSE CITY  CLOUDY    37  33  85 SW6       29.90S WCI  32
$$
MIZ007>008-015-182300-
EASTERN UPPER MICHIGAN

CITY           SKY/WX    TMP DP  RH WIND       PRES   REMARKS
KINROSS        CLOUDY    34  32  92 SW8       29.84S WCI  27
MACKINAC ISLAN CLOUDY    34  34 100 SW14G24   29.86S WCI  24
NEWBERRY       CLOUDY    32  32  99 SW14      29.83R WCI  22
S. S. MARIE    CLOUDY    36  31  82 SW12      29.83S WCI  28
MUNISING         N/A     40  32  73 S9        29.80R WCI  34
$$
MIZ004>006-011>014-085-182300-
CENTRAL UPPER MICHIGAN

CITY           SKY/WX    TMP DP  RH WIND       PRES   REMARKS
MANISTIQUE     CLOUDY    33  32  97 SW12G18   29.85S WCI  24
ESCANABA       CLEAR     35  32  88 S10       29.85R WCI  27
SAWYER-GWINN   CLEAR     41  28  60 S9        29.79R
$$
MIZ001>003-009>011-084-182300-
WESTERN UPPER MICHIGAN

CITY           SKY/WX    TMP DP  RH WIND       PRES   REMARKS
IRON MOUNTAIN  CLEAR     45  27  49 SW7       29.80R
HOUGHTON       CLEAR     37  26  64 W21       29.76S WCI  26
COPPER HARBOR    N/A     36  30  79 NW7       29.78R WCI  30
IRONWOOD       CLEAR     46  28  49 SW9       29.80R
$$

ABBREVIATIONS USED IN REMARKS
   TC - TEMPERATURE IN CELSIUS
  WCI - WIND CHILL INDEX
   HX - HEAT INDEX
  VSB - VISIBILITY





USA.gov is the U.S. government's official web portal to all federal, state and local government web resources and services.